SCP
-0 -0 0 0 0 0 0 0 0 0 1 1 1 1 1 1 1 1 1 1 1 1 0 0 0 0 0 1 0 0 1 1 1 0 0 1 1 0 1 0 0 0 0
0 -0 0 0 0 0 1 0 0 1 1 1 1 1 1 1 1 1 1 1 1 1 0 0 0 0 0 0 0 0 0 0 1 1 0 1 1 0 0 0 0 0 0
0 0 0 0 0 0 0 1 0 0 0 0 0 0 1 1 1 1 1 1 1 1 0 0 0 0 0 0 0 0 0 1 0 1 1 0 0 0 1 0 0 1 1
0 1 1 1 1 1 1 1 1 1 1 1 1 1 1 1 0 1 1 1 1 0 0 0 1 1 1 0 0 0 0 1 1 0 1 1 1 1 1 1 0 0 0
0 0 0 0 1 1 1 1 1 1 1 1 1 1 1 1 1 0 0 1 1 1 0 1 1 1 0 0 1 1 1 1 1 0 0 0 1 1 1 1 0 0 1
0 0 0 0 0 0 1 1 1 1 1 1 1 1 1 0 1 1 1 1 1 1 1 1 1 1 0 0 0 0 0 0 0 1 1 0 0 1 1 2 1 0 0
0 0 0 0 0 0 0 0 0 0 1 1 1 1 1 1 1 1 0 1 1 1 1 1 1 1 0 1 0 0 0 0 0 0 0 0 0 0 0 1 2 2 1
0 0 0 0 0 0 0 0 0 0 0 0 0 1 1 1 1 1 0 0 0 0 1 1 1 1 1 1 1 1 1 0 0 0 0 -0 0 0 0 0 1 2 2
0 0 0 0 0 0 0 0 0 0 0 0 0 0 1 1 1 0 0 0 0 0 0 0 0 0 0 0 1 0 0 0 0 0 0 0 0 0 0 0 0 1 2
0 0 0 0 0 0 0 0 0 0 0 0 0 0 0 0 0 0 0 1 0 0 1 1 0 0 0 0 0 0 0 0 0 0 0 0 0 0 0 0 0 0 0
0 0 0 0 0 0 0 0 0 0 0 0 0 0 0 0 0 0 0 1 1 0 0 0 0 0 -0 0 0 0 0 0 0 0 0 0 0 0 0 0 0 0 0
0 0 0 0 0 0 0 0 0 0 0 0 0 0 0 0 0 0 0 0 0 1 0 0 0 0 0 -0 0 0 0 0 0 0 0 0 0 0 0 0 0 0 0
0 0 0 0 0 0 0 0 0 0 0 0 0 0 0 0 0 0 0 0 0 0 0 0 0 0 0 0 0 0 0 0 0 0 0 0 0 0 1 0 1 0 0
0 0 0 0 0 0 0 0 0 0 0 0 0 0 0 0 0 0 1 1 0 0 0 0 0 0 0 0 0 0 0 0 0 0 0 0 0 0 1 1 1 0 0
0 0 0 0 0 0 0 0 0 0 0 0 0 0 0 0 0 0 0 0 0 0 0 0 2 1 1 0 0 0 0 0 0 0 0 0 0 0 0 1 0 0 0
0 0 0 0 0 0 0 0 0 0 0 0 0 0 0 0 0 0 0 0 0 0 0 0 0 1 1 1 1 1 1 0 0 0 1 1 0 0 0 0 1 1 1
0 -0 0 0 0 0 0 0 0 0 0 0 0 0 0 0 0 0 0 0 0 0 0 0 0 1 1 1 1 0 1 1 1 1 1 0 0 1 1 1 1 1 1
0 -0 -0 0 0 0 0 0 0 0 0 0 0 0 0 0 0 0 0 0 0 0 0 0 0 0 1 0 1 0 0 0 1 1 1 0 1 1 1 1 1 1 1
0 0 -0 -0 0 0 0 -0 -0 0 0 0 0 0 0 0 0 0 0 0 0 0 0 0 0 0 0 0 0 0 0 0 1 1 1 0 1 1 1 1 1 0 1
0 0 0 0 0 0 0 0 0 -0 0 0 0 0 0 0 0 0 0 0 0 0 0 0 0 0 0 0 0 0 1 0 0 0 0 0 0 0 1 1 1 1 1
0 0 0 0 -0 0 -0 -0 -0 -0 -0 0 0 0 0 0 0 0 0 0 0 0 0 0 0 0 0 0 0 0 0 0 0 0 0 0 0 0 0 1 1 1 1
0 0 0 0 -0 -0 -0 -0 -0 0 0 0 0 0 0 0 0 0 0 0 0 0 0 0 0 0 0 0 0 0 0 0 0 0 0 0 0 0 0 0 1 1 1
0 0 0 0 0 -0 -0 -0 -0 -0 -0 0 0 0 0 0 0 0 0 0 0 0 0 0 0 0 0 0 0 0 0 0 0 0 0 0 0 0 0 0 0 0 1
-0 0 0 0 0 -0 0 -0 -0 -0 -0 -0 -0 -0 0 0 -0 -0 -0 0 0 0 0 0 0 0 0 0 0 0 0 0 0 0 0 0 0 0 1 0 0 0 0
0 0 -0 -0 -0 0 -0 -0 -0 -0 -0 -0 -0 -0 -0 -0 -0 -0 -0 0 0 0 0 0 0 0 0 0 0 0 0 0 0 0 0 0 0 0 0 0 0 0 0
0 0 0 0 0 -0 -0 -0 -0 -0 -0 -0 -0 -0 -0 -0 -0 -0 -0 -0 -0 -0 -0 0 0 0 0 0 0 0 0 0 0 0 0 0 0 0 0 0 0 0 0
Wind_Speed_500mb
12 13 15 14 14 17 16 18 20 18 21 20 21 23 22 24 29 35 40 40 40 36 38 43 42 42 42 44 38 50 55 52 53 43 43 37 31 37 35 33 37 41 40
11 11 13 17 21 14 7 10 19 23 23 19 17 22 26 25 30 31 36 37 41 44 44 40 41 37 39 38 37 43 49 47 53 54 46 44 44 43 43 41 41 40 42
14 15 18 19 19 18 17 16 16 16 20 19 18 17 17 21 25 28 34 41 49 51 53 44 39 37 37 35 35 34 38 39 50 52 55 46 49 46 42 45 46 45 45
22 24 26 26 27 28 28 26 25 22 21 20 20 21 21 21 24 26 29 33 43 46 52 48 43 44 56 65 55 52 49 45 43 47 49 57 50 50 45 45 48 47 52
36 37 34 40 36 32 36 35 40 36 31 31 30 27 27 26 26 29 30 31 36 43 43 50 52 53 56 56 50 45 41 37 36 40 48 48 51 48 58 50 48 49 47
43 41 42 39 38 30 27 30 39 45 44 43 37 36 35 33 38 42 41 35 32 33 36 37 41 46 47 52 56 55 42 43 38 44 47 48 46 46 49 61 48 48 53
36 35 35 40 45 47 43 38 36 35 38 40 45 51 43 41 40 35 39 42 34 32 31 29 28 30 39 38 37 33 36 38 40 38 41 42 43 41 37 47 61 55 52
31 34 36 38 40 42 45 46 44 40 40 38 42 47 52 52 50 44 38 42 38 40 38 34 31 28 28 26 22 28 30 30 37 40 45 41 34 34 39 43 49 60 61
39 44 48 50 54 56 55 51 50 50 47 46 46 46 52 55 63 60 48 48 40 40 38 37 36 34 35 40 37 36 35 37 35 41 43 38 35 31 37 44 58 53 59
46 51 53 53 55 59 58 58 58 54 52 53 51 51 51 55 61 67 62 55 52 49 45 43 43 43 41 42 41 39 39 40 34 35 40 47 50 50 39 38 47 57 59
49 53 49 46 51 49 57 60 59 61 60 53 48 51 53 57 56 61 63 66 61 59 56 54 49 50 49 49 42 43 48 43 40 39 43 45 45 41 39 36 34 49 60
49 45 47 47 50 51 54 58 56 51 52 51 50 47 47 52 56 64 64 59 61 60 63 68 64 60 58 63 60 54 55 54 53 49 51 52 49 48 44 43 36 38 47
43 46 45 45 50 51 49 51 53 49 41 36 37 38 43 42 38 39 40 50 59 60 63 68 75 74 72 74 76 70 67 64 54 56 58 59 57 52 56 54 47 48 48
43 46 47 48 53 52 48 47 48 48 42 38 34 37 35 34 35 39 35 32 34 38 40 54 69 71 74 76 69 59 66 55 56 61 60 59 56 55 54 51 53 56 58
45 47 44 47 46 51 49 48 45 35 33 39 39 37 44 48 42 37 39 47 50 46 49 35 44 45 52 58 60 59 58 55 54 55 59 60 58 59 60 55 53 53 60
50 47 48 48 46 48 49 50 35 34 26 20 25 34 41 47 46 52 48 48 52 54 56 57 48 51 53 54 49 49 50 52 53 53 53 53 55 57 59 54 58 52 58
46 46 47 44 46 50 52 51 57 47 29 26 18 21 26 37 45 46 45 45 47 46 52 58 59 53 54 51 47 46 49 49 45 51 50 45 43 47 53 60 58 53 58
38 33 39 40 42 50 53 55 53 49 50 45 28 32 34 35 41 45 46 47 43 40 41 41 52 61 51 48 46 43 47 51 48 49 51 49 50 47 47 52 55 61 58
35 36 36 34 38 46 49 53 56 60 57 50 45 35 34 32 32 26 21 24 30 32 30 31 34 46 46 42 37 46 49 51 50 53 54 54 54 48 52 49 51 55 58
31 42 42 34 37 39 42 40 50 54 59 67 68 63 54 41 35 26 18 17 20 19 22 31 32 30 37 41 42 45 48 46 45 49 53 52 54 55 55 51 54 51 50
29 31 36 34 35 38 38 36 38 49 54 55 55 60 68 60 46 36 31 26 28 26 21 24 30 30 28 31 34 40 42 46 46 49 53 52 54 54 56 56 51 52 49
31 32 33 34 34 35 37 37 37 40 45 54 54 51 54 59 65 69 54 36 31 26 28 33 34 36 38 39 41 41 41 39 43 45 48 51 55 56 52 57 54 49 50
34 34 34 33 34 34 35 35 37 39 41 45 52 55 59 59 56 59 66 64 52 47 38 28 26 24 27 34 39 46 50 51 50 48 46 48 48 55 47 53 54 54 55
35 34 34 34 35 35 36 36 37 39 40 40 42 44 45 48 57 57 57 55 59 60 53 47 45 45 35 31 28 21 17 25 44 56 59 66 62 55 48 52 51 55 62
33 34 35 36 36 37 37 37 37 37 38 38 39 41 40 42 44 48 50 50 49 48 52 51 53 50 49 44 40 35 34 33 31 33 34 47 67 71 77 58 55 54 61
29 29 31 32 35 36 36 37 38 38 38 37 38 39 38 40 40 40 43 48 47 47 46 39 40 42 50 51 47 45 40 38 44 39 42 48 48 55 70 81 67 68 65
Wind_Direction_500mb
43 13 8 9 359 348 353 359 348 324 297 279 265 265 267 270 265 261 256 246 248 249 246 246 247 249 241 239 245 246 250 249 246 249 255 254 232 244 237 248 243 245 247
50 13 338 341 335 322 304 342 353 340 327 317 300 290 291 280 274 269 264 250 246 250 253 255 248 249 253 240 250 250 247 252 250 252 252 258 250 252 251 247 242 242 247
345 331 312 302 300 295 287 295 311 315 323 329 341 343 327 310 297 290 277 269 260 253 248 247 254 232 235 234 246 258 259 259 255 259 267 258 254 252 255 253 246 243 237
324 317 308 303 294 288 281 279 285 287 285 285 287 291 293 291 292 299 313 299 277 268 250 243 245 247 246 246 250 252 255 258 256 253 270 263 254 247 249 246 248 248 241
318 317 313 307 305 289 270 276 272 270 271 272 273 271 272 275 281 278 280 278 286 276 261 247 250 253 245 242 248 245 248 255 258 261 257 261 258 258 245 245 245 242 243
316 313 308 307 305 308 301 289 278 271 269 269 262 262 264 267 270 285 277 263 262 262 262 258 256 254 251 248 245 237 243 248 251 257 261 261 265 269 265 244 239 242 242
328 324 321 319 312 304 303 303 299 291 284 274 263 263 257 258 261 278 278 273 262 260 259 258 255 257 262 262 263 255 254 260 262 260 261 263 268 269 269 253 240 240 241
328 328 329 324 318 316 312 308 303 295 287 280 274 268 261 256 257 260 264 268 266 262 258 257 259 255 252 254 253 251 250 255 260 262 262 263 269 273 272 259 253 250 247
333 330 329 325 320 316 310 305 303 303 297 286 279 273 267 258 250 254 251 255 261 265 263 259 257 258 260 267 265 262 260 256 261 265 257 250 267 277 285 265 252 259 256
332 327 322 320 317 313 309 304 299 285 288 292 286 276 271 266 257 254 251 250 253 257 261 262 268 270 264 267 267 267 262 263 262 259 265 264 258 266 269 275 264 251 255
328 328 328 324 321 319 315 311 307 297 278 272 282 282 276 266 258 257 255 251 250 255 258 263 264 267 272 273 268 270 269 266 260 261 260 257 255 257 266 260 273 261 254
330 332 334 335 335 331 327 323 317 307 302 282 275 284 282 273 265 259 262 263 260 253 254 257 260 263 266 271 271 274 277 274 266 259 254 254 254 254 255 260 274 266 279
337 342 339 338 338 338 335 332 324 317 305 300 276 286 291 279 277 270 272 272 274 272 260 256 254 255 257 259 264 271 275 268 260 255 252 250 251 255 258 257 257 259 274
334 336 340 339 337 340 343 343 336 331 316 307 291 272 289 291 285 273 269 268 265 269 279 268 258 254 250 252 255 261 266 255 250 250 251 253 251 251 251 259 257 265 266
346 342 340 338 338 343 346 346 350 347 329 310 293 278 292 293 291 284 283 278 274 267 265 266 252 251 252 252 253 253 251 251 250 249 247 249 249 249 251 256 254 254 257
3 2 356 349 340 343 343 342 354 355 352 336 320 304 300 294 297 288 283 282 280 274 262 258 264 250 248 251 251 251 248 247 244 245 245 246 247 248 250 251 256 247 249
343 355 3 0 7 7 4 354 341 338 340 333 330 319 291 284 281 282 285 288 287 278 259 257 252 256 251 250 251 253 250 248 241 241 242 245 249 252 249 241 240 249 249
345 352 359 3 8 18 19 14 6 354 342 340 333 313 309 299 293 298 294 289 289 285 270 259 260 266 245 251 252 254 252 251 257 250 256 258 256 255 257 257 249 245 242
351 359 358 356 356 7 17 23 22 23 16 2 344 334 330 321 321 311 311 312 289 292 285 278 278 273 253 251 246 253 260 258 252 256 254 255 256 256 259 258 253 244 242
351 347 357 357 356 2 6 5 12 20 28 28 23 10 350 341 333 324 311 307 275 282 289 282 281 283 262 254 252 258 261 257 255 254 258 257 256 255 256 257 252 242 245
356 352 355 356 356 355 355 359 1 9 17 19 21 25 27 20 5 351 342 326 313 299 284 273 270 277 282 272 263 262 265 263 261 259 257 260 262 257 253 251 255 254 243
360 356 355 355 355 356 358 356 357 356 358 12 15 17 21 24 22 21 15 8 354 332 312 291 277 264 267 271 265 267 265 259 260 262 267 256 258 264 258 249 248 248 250
4 1 358 355 353 356 354 357 356 358 359 355 0 7 17 17 15 16 15 21 31 30 17 357 327 298 278 275 269 264 263 259 255 258 265 256 259 264 255 259 257 249 243
7 4 2 360 355 0 353 355 353 354 356 357 357 359 359 359 14 13 7 6 16 20 22 23 28 19 30 47 48 37 350 318 276 267 261 258 257 256 261 259 259 251 251
360 3 4 3 0 358 358 357 355 353 352 353 353 353 355 356 355 3 13 13 14 7 359 3 8 9 2 4 6 355 349 345 342 351 335 290 271 262 255 260 259 254 255
337 344 351 355 356 356 355 354 354 354 352 352 350 349 350 349 350 353 354 4 8 13 15 17 14 7 7 4 355 344 333 327 336 325 330 334 317 285 267 259 255 254 253
Wind_Speed_850mb
12 13 15 14 14 17 16 18 20 18 21 20 21 23 22 24 29 35 40 40 40 36 38 43 42 42 42 44 38 50 55 52 53 43 43 37 31 37 35 33 37 41 40
11 11 13 17 21 14 7 10 19 23 23 19 17 22 26 25 30 31 36 37 41 44 44 40 41 37 39 38 37 43 49 47 53 54 46 44 44 43 43 41 41 40 42
14 15 18 19 19 18 17 16 16 16 20 19 18 17 17 21 25 28 34 41 49 51 53 44 39 37 37 35 35 34 38 39 50 52 55 46 49 46 42 45 46 45 45
22 24 26 26 27 28 28 26 25 22 21 20 20 21 21 21 24 26 29 33 43 46 52 48 43 44 56 65 55 52 49 45 43 47 49 57 50 50 45 45 48 47 52
36 37 34 40 36 32 36 35 40 36 31 31 30 27 27 26 26 29 30 31 36 43 43 50 52 53 56 56 50 45 41 37 36 40 48 48 51 48 58 50 48 49 47
43 41 42 39 38 30 27 30 39 45 44 43 37 36 35 33 38 42 41 35 32 33 36 37 41 46 47 52 56 55 42 43 38 44 47 48 46 46 49 61 48 48 53
36 35 35 40 45 47 43 38 36 35 38 40 45 51 43 41 40 35 39 42 34 32 31 29 28 30 39 38 37 33 36 38 40 38 41 42 43 41 37 47 61 55 52
31 34 36 38 40 42 45 46 44 40 40 38 42 47 52 52 50 44 38 42 38 40 38 34 31 28 28 26 22 28 30 30 37 40 45 41 34 34 39 43 49 60 61
39 44 48 50 54 56 55 51 50 50 47 46 46 46 52 55 63 60 48 48 40 40 38 37 36 34 35 40 37 36 35 37 35 41 43 38 35 31 37 44 58 53 59
46 51 53 53 55 59 58 58 58 54 52 53 51 51 51 55 61 67 62 55 52 49 45 43 43 43 41 42 41 39 39 40 34 35 40 47 50 50 39 38 47 57 59
49 53 49 46 51 49 57 60 59 61 60 53 48 51 53 57 56 61 63 66 61 59 56 54 49 50 49 49 42 43 48 43 40 39 43 45 45 41 39 36 34 49 60
49 45 47 47 50 51 54 58 56 51 52 51 50 47 47 52 56 64 64 59 61 60 63 68 64 60 58 63 60 54 55 54 53 49 51 52 49 48 44 43 36 38 47
43 46 45 45 50 51 49 51 53 49 41 36 37 38 43 42 38 39 40 50 59 60 63 68 75 74 72 74 76 70 67 64 54 56 58 59 57 52 56 54 47 48 48
43 46 47 48 53 52 48 47 48 48 42 38 34 37 35 34 35 39 35 32 34 38 40 54 69 71 74 76 69 59 66 55 56 61 60 59 56 55 54 51 53 56 58
45 47 44 47 46 51 49 48 45 35 33 39 39 37 44 48 42 37 39 47 50 46 49 35 44 45 52 58 60 59 58 55 54 55 59 60 58 59 60 55 53 53 60
50 47 48 48 46 48 49 50 35 34 26 20 25 34 41 47 46 52 48 48 52 54 56 57 48 51 53 54 49 49 50 52 53 53 53 53 55 57 59 54 58 52 58
46 46 47 44 46 50 52 51 57 47 29 26 18 21 26 37 45 46 45 45 47 46 52 58 59 53 54 51 47 46 49 49 45 51 50 45 43 47 53 60 58 53 58
38 33 39 40 42 50 53 55 53 49 50 45 28 32 34 35 41 45 46 47 43 40 41 41 52 61 51 48 46 43 47 51 48 49 51 49 50 47 47 52 55 61 58
35 36 36 34 38 46 49 53 56 60 57 50 45 35 34 32 32 26 21 24 30 32 30 31 34 46 46 42 37 46 49 51 50 53 54 54 54 48 52 49 51 55 58
31 42 42 34 37 39 42 40 50 54 59 67 68 63 54 41 35 26 18 17 20 19 22 31 32 30 37 41 42 45 48 46 45 49 53 52 54 55 55 51 54 51 50
29 31 36 34 35 38 38 36 38 49 54 55 55 60 68 60 46 36 31 26 28 26 21 24 30 30 28 31 34 40 42 46 46 49 53 52 54 54 56 56 51 52 49
31 32 33 34 34 35 37 37 37 40 45 54 54 51 54 59 65 69 54 36 31 26 28 33 34 36 38 39 41 41 41 39 43 45 48 51 55 56 52 57 54 49 50
34 34 34 33 34 34 35 35 37 39 41 45 52 55 59 59 56 59 66 64 52 47 38 28 26 24 27 34 39 46 50 51 50 48 46 48 48 55 47 53 54 54 55
35 34 34 34 35 35 36 36 37 39 40 40 42 44 45 48 57 57 57 55 59 60 53 47 45 45 35 31 28 21 17 25 44 56 59 66 62 55 48 52 51 55 62
33 34 35 36 36 37 37 37 37 37 38 38 39 41 40 42 44 48 50 50 49 48 52 51 53 50 49 44 40 35 34 33 31 33 34 47 67 71 77 58 55 54 61
29 29 31 32 35 36 36 37 38 38 38 37 38 39 38 40 40 40 43 48 47 47 46 39 40 42 50 51 47 45 40 38 44 39 42 48 48 55 70 81 67 68 65
Wind_Direction_850mb
43 13 8 9 359 348 353 359 348 324 297 279 265 265 267 270 265 261 256 246 248 249 246 246 247 249 241 239 245 246 250 249 246 249 255 254 232 244 237 248 243 245 247
50 13 338 341 335 322 304 342 353 340 327 317 300 290 291 280 274 269 264 250 246 250 253 255 248 249 253 240 250 250 247 252 250 252 252 258 250 252 251 247 242 242 247
345 331 312 302 300 295 287 295 311 315 323 329 341 343 327 310 297 290 277 269 260 253 248 247 254 232 235 234 246 258 259 259 255 259 267 258 254 252 255 253 246 243 237
324 317 308 303 294 288 281 279 285 287 285 285 287 291 293 291 292 299 313 299 277 268 250 243 245 247 246 246 250 252 255 258 256 253 270 263 254 247 249 246 248 248 241
318 317 313 307 305 289 270 276 272 270 271 272 273 271 272 275 281 278 280 278 286 276 261 247 250 253 245 242 248 245 248 255 258 261 257 261 258 258 245 245 245 242 243
316 313 308 307 305 308 301 289 278 271 269 269 262 262 264 267 270 285 277 263 262 262 262 258 256 254 251 248 245 237 243 248 251 257 261 261 265 269 265 244 239 242 242
328 324 321 319 312 304 303 303 299 291 284 274 263 263 257 258 261 278 278 273 262 260 259 258 255 257 262 262 263 255 254 260 262 260 261 263 268 269 269 253 240 240 241
328 328 329 324 318 316 312 308 303 295 287 280 274 268 261 256 257 260 264 268 266 262 258 257 259 255 252 254 253 251 250 255 260 262 262 263 269 273 272 259 253 250 247
333 330 329 325 320 316 310 305 303 303 297 286 279 273 267 258 250 254 251 255 261 265 263 259 257 258 260 267 265 262 260 256 261 265 257 250 267 277 285 265 252 259 256
332 327 322 320 317 313 309 304 299 285 288 292 286 276 271 266 257 254 251 250 253 257 261 262 268 270 264 267 267 267 262 263 262 259 265 264 258 266 269 275 264 251 255
328 328 328 324 321 319 315 311 307 297 278 272 282 282 276 266 258 257 255 251 250 255 258 263 264 267 272 273 268 270 269 266 260 261 260 257 255 257 266 260 273 261 254
330 332 334 335 335 331 327 323 317 307 302 282 275 284 282 273 265 259 262 263 260 253 254 257 260 263 266 271 271 274 277 274 266 259 254 254 254 254 255 260 274 266 279
337 342 339 338 338 338 335 332 324 317 305 300 276 286 291 279 277 270 272 272 274 272 260 256 254 255 257 259 264 271 275 268 260 255 252 250 251 255 258 257 257 259 274
334 336 340 339 337 340 343 343 336 331 316 307 291 272 289 291 285 273 269 268 265 269 279 268 258 254 250 252 255 261 266 255 250 250 251 253 251 251 251 259 257 265 266
346 342 340 338 338 343 346 346 350 347 329 310 293 278 292 293 291 284 283 278 274 267 265 266 252 251 252 252 253 253 251 251 250 249 247 249 249 249 251 256 254 254 257
3 2 356 349 340 343 343 342 354 355 352 336 320 304 300 294 297 288 283 282 280 274 262 258 264 250 248 251 251 251 248 247 244 245 245 246 247 248 250 251 256 247 249
343 355 3 0 7 7 4 354 341 338 340 333 330 319 291 284 281 282 285 288 287 278 259 257 252 256 251 250 251 253 250 248 241 241 242 245 249 252 249 241 240 249 249
345 352 359 3 8 18 19 14 6 354 342 340 333 313 309 299 293 298 294 289 289 285 270 259 260 266 245 251 252 254 252 251 257 250 256 258 256 255 257 257 249 245 242
351 359 358 356 356 7 17 23 22 23 16 2 344 334 330 321 321 311 311 312 289 292 285 278 278 273 253 251 246 253 260 258 252 256 254 255 256 256 259 258 253 244 242
351 347 357 357 356 2 6 5 12 20 28 28 23 10 350 341 333 324 311 307 275 282 289 282 281 283 262 254 252 258 261 257 255 254 258 257 256 255 256 257 252 242 245
356 352 355 356 356 355 355 359 1 9 17 19 21 25 27 20 5 351 342 326 313 299 284 273 270 277 282 272 263 262 265 263 261 259 257 260 262 257 253 251 255 254 243
360 356 355 355 355 356 358 356 357 356 358 12 15 17 21 24 22 21 15 8 354 332 312 291 277 264 267 271 265 267 265 259 260 262 267 256 258 264 258 249 248 248 250
4 1 358 355 353 356 354 357 356 358 359 355 0 7 17 17 15 16 15 21 31 30 17 357 327 298 278 275 269 264 263 259 255 258 265 256 259 264 255 259 257 249 243
7 4 2 360 355 0 353 355 353 354 356 357 357 359 359 359 14 13 7 6 16 20 22 23 28 19 30 47 48 37 350 318 276 267 261 258 257 256 261 259 259 251 251
360 3 4 3 0 358 358 357 355 353 352 353 353 353 355 356 355 3 13 13 14 7 359 3 8 9 2 4 6 355 349 345 342 351 335 290 271 262 255 260 259 254 255
337 344 351 355 356 356 355 354 354 354 352 352 350 349 350 349 350 353 354 4 8 13 15 17 14 7 7 4 355 344 333 327 336 325 330 334 317 285 267 259 255 254 253